Location: *
(47.8307°S, 178.3954°E)
Time: 23:13:38
(UTC+00:00)

USA 229 DEB - Pass Details

Date: 12 August 2024
Orbit: 881 x 1330 km, 63.4° (Epoch: 31 August)

Event Time Altitude Azimuth Distance (km) Brightness Sun altitude
Rises 18:09:30 0° 320° (NW) 4,300 6.6 -11.1°
Reaches altitude 10° 18:12:24 10° 319° (NW) 3,303 6.0 -10.6°
Maximum altitude 18:20:29 84° 230° (SW) 1,237 4.0 -9.3°
Drops below altitude 10° 18:27:51 10° 140° (SE) 3,031 6.5 -8.1°
Sets 18:30:26 0° 139° (SE) 3,930 7.1 -7.7°
